Weather History for KIRK - January, 2013

Change the Weather History Date:

Sunday, January 13, 2013

  Actual Average Record
Temperature  
Mean Temperature 16 °F 26 °F  
Max Temperature 22 °F 35 °F - ()
Min Temperature 9 °F 17 °F - ()
Degree Days  
Heating Degree Days 49 39  
Month to date heating degree days 467 507  
Since 1 July heating degree days 2709 2850  
Cooling Degree Days 0 0  
Month to date cooling degree days 0 0  
Year to date cooling degree days 0 0  
Moisture  
Dew Point 8 °F    
Average Humidity 70    
Maximum Humidity 83    
Minimum Humidity 57    
Precipitation  
Precipitation 0.00 in 0.03 in - ()
Month to date precipitation 0.29 0.39  
Year to date precipitation 0.29 0.39  
Sea Level Pressure  
Sea Level Pressure 30.21 in    
Wind  
Wind Speed 8 mph (NW)    
Max Wind Speed 17 mph    
Max Gust Speed 23 mph    
Visibility 10 miles    
Events      
T = Trace of Precipitation, MM = Missing Value Source: NWS Daily Summary

Daily Weather History Graph

Daily Weather History Graph

Search for Another Location

Airport or City:

Trip Planner

Search our weather history database for the weather conditions in past years. The results will help you decide how hot, cold, wet, or windy it might be!

Date:

Astronomy

Jan. 13, 2013 Rise Set
Actual Time 7:31 AM CST 5:07 PM CST
Civil Twilight 7:01 AM CST 5:37 PM CST
Nautical Twilight 6:27 AM CST 6:10 PM CST
Astronomical Twilight 5:55 AM CST 6:43 PM CST
Moon 8:29 AM CST (1/13) 7:46 PM CST (1/13)
Length of Visible Light 10h 36m
Length of Day
9h 36m
Waxing Crescent, 5% of the Moon is Illuminated
Jan 13
Waxing Crescent
Jan 18
First Quarter
Jan 26
Full
Feb 3
Last Quarter
Feb 10
New

Hourly Weather History & Observations

Time (CST) Temp. Windchill Dew Point Humidity Pressure Visibility Wind Dir Wind Speed Gust Speed Precip Events Conditions
12:55 AM 19.9 °F 9.3 °F 12.0 °F 71% 30.07 in 10.0 mi NNW 9.2 mph - N/A   Mostly Cloudy
1:55 AM 19.0 °F 9.0 °F 10.9 °F 71% 30.07 in 10.0 mi NNW 8.1 mph - N/A   Scattered Clouds
2:04 AM 19.4 °F 7.9 °F 12.2 °F 74% 30.02 in 10.0 mi NW 10.4 mph - N/A   Mostly Cloudy
2:55 AM 18.0 °F 6.9 °F 10.0 °F 71% 30.13 in 10.0 mi NW 9.2 mph - N/A   Mostly Cloudy
3:06 AM 17.6 °F 5.0 °F 8.6 °F 68% 30.08 in 10.0 mi NNW 11.5 mph - N/A   Scattered Clouds
3:55 AM 15.1 °F 5.2 °F 7.0 °F 70% 30.11 in 10.0 mi NNW 6.9 mph - N/A   Clear
4:55 AM 14.0 °F 6.5 °F 7.0 °F 74% 30.12 in 10.0 mi NNW 4.6 mph - N/A   Clear
5:55 AM 14.0 °F 3.9 °F 7.0 °F 74% 30.14 in 10.0 mi NNW 6.9 mph - N/A   Clear
6:55 AM 12.9 °F 0.7 °F 5.0 °F 71% 30.19 in 10.0 mi NW 9.2 mph - N/A   Clear
7:55 AM 12.0 °F 1.5 °F 3.9 °F 70% 30.20 in 10.0 mi NW 6.9 mph - N/A   Clear
8:55 AM 12.9 °F -0.2 °F 5.0 °F 71% 30.19 in 10.0 mi NW 10.4 mph - N/A   Clear
9:55 AM 15.1 °F 4.2 °F 7.0 °F 70% 30.23 in 10.0 mi NW 8.1 mph - N/A   Scattered Clouds
10:12 AM 15.8 °F 6.1 °F 6.8 °F 68% 30.16 in 10.0 mi WNW 6.9 mph - N/A   Mostly Cloudy
10:55 AM 17.1 °F 5.8 °F 8.1 °F 68% 30.24 in 10.0 mi NW 9.2 mph - N/A   Mostly Cloudy
11:55 AM 19.0 °F 5.6 °F 10.0 °F 68% 30.20 in 10.0 mi WNW 13.8 mph - N/A   Mostly Cloudy
12:04 PM 19.4 °F 8.6 °F 10.4 °F 68% 30.15 in 10.0 mi WNW 9.2 mph - N/A   Scattered Clouds
12:55 PM 19.9 °F 6.2 °F 9.0 °F 62% 30.19 in 10.0 mi WNW 15.0 mph 19.6 mph N/A   Clear
1:55 PM 21.9 °F 11.0 °F 10.0 °F 60% 30.20 in 10.0 mi WNW 10.4 mph - N/A   Clear
2:55 PM 21.9 °F 9.8 °F 9.0 °F 58% 30.23 in 10.0 mi West 12.7 mph - N/A   Clear
3:55 PM 21.9 °F 11.7 °F 10.0 °F 60% 30.26 in 10.0 mi West 9.2 mph - N/A   Clear
4:55 PM 19.9 °F 12.1 °F 9.0 °F 62% 30.27 in 10.0 mi WNW 5.8 mph - N/A   Clear
5:55 PM 18.0 °F 9.8 °F 9.0 °F 68% 30.31 in 10.0 mi WNW 5.8 mph - N/A   Clear
6:55 PM 17.1 °F 11.7 °F 9.0 °F 71% 30.32 in 10.0 mi WNW 3.5 mph - N/A   Clear
7:55 PM 16.0 °F 7.4 °F 8.1 °F 71% 30.33 in 10.0 mi NW 5.8 mph - N/A   Clear
8:55 PM 12.9 °F 6.9 °F 7.0 °F 77% 30.34 in 10.0 mi WNW 3.5 mph - N/A   Clear
9:55 PM 12.0 °F 5.9 °F 7.0 °F 80% 30.36 in 10.0 mi WNW 3.5 mph - N/A   Clear
10:55 PM 10.4 °F 0.8 °F 6.8 °F 85% 30.31 in 10.0 mi WNW 5.8 mph - N/A   Clear
11:55 PM 12.9 °F 5.2 °F 6.1 °F 74% 30.38 in 10.0 mi NW 4.6 mph - N/A   Clear